Time,TemperatureF,DewpointF,PressureIn,WindDirection,WindDirectionDegrees,WindSpeedMPH,WindSpeedGustMPH,Humidity,HourlyPrecipIn,Conditions,Clouds,dailyrainin,SolarRadiationWatts/m^2,SoftwareType,DateUTC
2013-01-27 00:03:00,23.7,14.0,30.35,SE,140,2.0,11.0,66,0.00,,,0.00,0.0,meteohub,2013-01-27 06:03:00,
2013-01-27 00:09:00,23.5,13.8,30.35,SSE,163,6.0,11.0,66,0.00,,,0.00,0.0,meteohub,2013-01-27 06:09:00,
2013-01-27 00:16:00,23.7,14.0,30.34,SSE,168,4.0,13.0,66,0.00,,,0.00,0.0,meteohub,2013-01-27 06:16:00,
2013-01-27 00:22:00,23.5,14.2,30.34,SSE,157,2.0,13.0,67,0.00,,,0.00,0.0,meteohub,2013-01-27 06:22:00,
2013-01-27 00:28:00,23.5,14.2,30.34,South,171,3.0,13.0,67,0.00,,,0.00,0.0,meteohub,2013-01-27 06:28:00,
2013-01-27 00:34:00,23.4,14.0,30.34,SSE,165,2.0,13.0,67,0.00,,,0.00,0.0,meteohub,2013-01-27 06:34:00,
2013-01-27 00:40:00,23.4,14.4,30.34,SSE,157,1.0,9.0,68,0.00,,,0.00,0.0,meteohub,2013-01-27 06:40:00,
2013-01-27 00:47:00,23.5,14.2,30.33,SSE,156,4.0,9.0,67,0.00,,,0.00,0.0,meteohub,2013-01-27 06:47:00,
2013-01-27 00:53:00,23.5,14.5,30.33,SSE,156,7.0,9.0,68,0.00,,,0.00,0.0,meteohub,2013-01-27 06:53:00,
2013-01-27 00:59:00,23.5,14.5,30.33,SSE,156,4.0,9.0,68,0.00,,,0.00,0.0,meteohub,2013-01-27 06:59:00,
2013-01-27 01:05:00,23.5,14.5,30.33,SE,138,2.0,13.0,68,0.00,,,0.00,0.0,meteohub,2013-01-27 07:05:00,
2013-01-27 01:13:00,23.5,14.5,30.33,SSE,150,3.0,13.0,68,0.00,,,0.00,0.0,meteohub,2013-01-27 07:13:00,
2013-01-27 01:20:00,23.7,14.7,30.32,South,176,1.0,13.0,68,0.00,,,0.00,0.0,meteohub,2013-01-27 07:20:00,
2013-01-27 01:26:00,23.7,14.7,30.32,South,169,6.0,13.0,68,0.00,,,0.00,0.0,meteohub,2013-01-27 07:26:00,
2013-01-27 01:32:00,23.7,14.7,30.32,SSE,154,3.0,9.0,68,0.00,,,0.00,0.0,meteohub,2013-01-27 07:32:00,
2013-01-27 01:38:00,23.7,14.7,30.32,SSE,154,4.0,9.0,68,0.00,,,0.00,0.0,meteohub,2013-01-27 07:38:00,
2013-01-27 01:44:00,23.7,14.7,30.32,South,182,6.0,10.0,68,0.00,,,0.00,0.0,meteohub,2013-01-27 07:44:00,
2013-01-27 01:50:00,23.5,14.5,30.32,SSE,167,3.0,10.0,68,0.00,,,0.00,0.0,meteohub,2013-01-27 07:50:00,
2013-01-27 01:57:00,23.5,14.9,30.32,SSE,167,5.0,10.0,69,0.00,,,0.00,0.0,meteohub,2013-01-27 07:57:00,
2013-01-27 02:03:00,23.7,15.1,30.32,South,175,6.0,8.0,69,0.00,,,0.00,0.0,meteohub,2013-01-27 08:03:00,
2013-01-27 02:09:00,23.7,14.7,30.32,SE,126,5.0,8.0,68,0.00,,,0.00,0.0,meteohub,2013-01-27 08:09:00,
2013-01-27 02:15:00,23.9,14.9,30.31,SSE,160,1.0,9.0,68,0.00,,,0.00,0.0,meteohub,2013-01-27 08:15:00,
2013-01-27 02:21:00,23.9,14.9,30.31,South,175,4.0,9.0,68,0.00,,,0.00,0.0,meteohub,2013-01-27 08:21:00,
2013-01-27 02:28:00,23.7,14.7,30.31,SSE,161,7.0,9.0,68,0.00,,,0.00,0.0,meteohub,2013-01-27 08:28:00,
2013-01-27 02:34:00,23.7,15.1,30.31,SE,146,2.0,9.0,69,0.00,,,0.00,0.0,meteohub,2013-01-27 08:34:00,
2013-01-27 02:40:00,23.7,15.1,30.31,SSE,155,1.0,9.0,69,0.00,,,0.00,0.0,meteohub,2013-01-27 08:40:00,
2013-01-27 02:46:00,23.5,14.9,30.31,South,177,4.0,8.0,69,0.00,,,0.00,0.0,meteohub,2013-01-27 08:46:00,
2013-01-27 02:52:00,23.5,15.3,30.31,SE,134,2.0,8.0,70,0.00,,,0.00,0.0,meteohub,2013-01-27 08:52:00,
2013-01-27 02:59:00,23.5,15.3,30.30,SSE,155,4.0,9.0,70,0.00,,,0.00,0.0,meteohub,2013-01-27 08:59:00,
2013-01-27 03:05:00,23.5,15.3,30.30,SSE,156,2.0,9.0,70,0.00,,,0.00,0.0,meteohub,2013-01-27 09:05:00,
2013-01-27 03:11:00,23.5,15.3,30.30,South,175,4.0,9.0,70,0.00,,,0.00,0.0,meteohub,2013-01-27 09:11:00,
2013-01-27 03:17:00,23.5,15.3,30.29,SSE,162,3.0,9.0,70,0.00,,,0.00,0.0,meteohub,2013-01-27 09:17:00,
2013-01-27 03:23:00,23.7,15.4,30.29,SSE,154,2.0,9.0,70,0.00,,,0.00,0.0,meteohub,2013-01-27 09:23:00,
2013-01-27 03:30:00,23.7,15.4,30.29,SSE,157,3.0,10.0,70,0.00,,,0.00,0.0,meteohub,2013-01-27 09:30:00,
2013-01-27 03:36:00,23.7,15.4,30.29,SSE,157,2.0,10.0,70,0.00,,,0.00,0.0,meteohub,2013-01-27 09:36:00,
2013-01-27 03:42:00,23.7,15.4,30.28,ESE,119,3.0,10.0,70,0.00,,,0.00,0.0,meteohub,2013-01-27 09:42:00,
2013-01-27 03:48:00,23.7,15.4,30.28,South,177,7.0,8.0,70,0.00,,,0.00,0.0,meteohub,2013-01-27 09:48:00,
2013-01-27 03:54:00,23.7,15.4,30.27,SSE,160,3.0,8.0,70,0.00,,,0.00,0.0,meteohub,2013-01-27 09:54:00,
2013-01-27 04:00:00,23.9,17.4,30.27,SSE,148,2.0,8.0,76,0.00,,,0.00,0.0,meteohub,2013-01-27 10:00:00,
2013-01-27 04:07:00,24.1,15.8,30.27,SSE,159,3.0,8.0,70,0.00,,,0.00,0.0,meteohub,2013-01-27 10:07:00,
2013-01-27 04:13:00,23.9,15.8,30.27,South,169,2.0,8.0,71,0.00,,,0.00,0.0,meteohub,2013-01-27 10:13:00,
2013-01-27 04:19:00,23.9,15.8,30.26,SSE,155,5.0,8.0,71,0.00,,,0.00,0.0,meteohub,2013-01-27 10:19:00,
2013-01-27 04:25:00,24.1,16.0,30.26,SSE,165,2.0,8.0,71,0.00,,,0.00,0.0,meteohub,2013-01-27 10:25:00,
2013-01-27 04:31:00,24.3,16.2,30.25,SSE,159,3.0,7.0,71,0.00,,,0.00,0.0,meteohub,2013-01-27 10:31:00,
2013-01-27 04:38:00,24.3,16.2,30.25,South,187,4.0,7.0,71,0.00,,,0.00,0.0,meteohub,2013-01-27 10:38:00,
2013-01-27 04:44:00,24.4,16.3,30.25,SSE,161,6.0,9.0,71,0.00,,,0.00,0.0,meteohub,2013-01-27 10:44:00,
2013-01-27 04:50:00,25.0,16.5,30.25,SSW,197,3.0,9.0,70,0.00,,,0.00,0.0,meteohub,2013-01-27 10:50:00,
2013-01-27 04:56:00,25.0,16.5,30.24,SE,138,3.0,9.0,70,0.00,,,0.00,0.0,meteohub,2013-01-27 10:56:00,
2013-01-27 05:02:00,25.2,16.7,30.24,South,180,4.0,9.0,70,0.00,,,0.00,0.0,meteohub,2013-01-27 11:02:00,
2013-01-27 05:07:00,25.3,16.9,30.24,SE,144,6.0,11.0,70,0.00,,,0.00,0.0,meteohub,2013-01-27 11:07:00,
2013-01-27 05:13:00,25.3,16.5,30.24,SSE,161,4.0,11.0,69,0.00,,,0.00,0.0,meteohub,2013-01-27 11:13:00,
2013-01-27 05:19:00,25.5,16.7,30.23,South,179,8.0,11.0,69,0.00,,,0.00,0.0,meteohub,2013-01-27 11:19:00,
2013-01-27 05:25:00,25.5,16.7,30.23,SSE,149,9.0,11.0,69,0.00,,,0.00,0.0,meteohub,2013-01-27 11:25:00,
2013-01-27 05:31:00,25.9,17.1,30.23,South,172,4.0,11.0,69,0.00,,,0.00,0.0,meteohub,2013-01-27 11:31:00,
2013-01-27 05:38:00,26.2,17.4,30.23,South,175,7.0,14.0,69,0.00,,,0.00,0.0,meteohub,2013-01-27 11:38:00,
2013-01-27 05:44:00,26.4,17.6,30.23,SE,128,3.0,14.0,69,0.00,,,0.00,0.0,meteohub,2013-01-27 11:44:00,
2013-01-27 05:50:00,26.4,17.6,30.22,SSE,161,2.0,14.0,69,0.00,,,0.00,0.0,meteohub,2013-01-27 11:50:00,
2013-01-27 05:56:00,26.8,17.6,30.22,SE,136,4.0,14.0,68,0.00,,,0.00,0.0,meteohub,2013-01-27 11:56:00,
2013-01-27 06:02:00,27.0,17.8,30.22,South,178,2.0,14.0,68,0.00,,,0.00,0.0,meteohub,2013-01-27 12:02:00,
2013-01-27 06:07:00,26.8,18.0,30.22,South,171,3.0,12.0,69,0.00,,,0.00,0.0,meteohub,2013-01-27 12:07:00,
2013-01-27 06:13:00,26.8,18.0,30.22,SSE,147,4.0,12.0,69,0.00,,,0.00,0.0,meteohub,2013-01-27 12:13:00,
2013-01-27 06:19:00,27.0,17.8,30.22,South,169,4.0,12.0,68,0.00,,,0.00,0.0,meteohub,2013-01-27 12:19:00,
2013-01-27 06:25:00,27.0,18.1,30.22,SSE,161,5.0,12.0,69,0.00,,,0.00,0.0,meteohub,2013-01-27 12:25:00,
2013-01-27 06:32:00,26.8,18.0,30.22,South,170,4.0,12.0,69,0.00,,,0.00,0.0,meteohub,2013-01-27 12:32:00,
2013-01-27 06:38:00,27.0,18.1,30.22,SE,136,6.0,12.0,69,0.00,,,0.00,0.0,meteohub,2013-01-27 12:38:00,
2013-01-27 06:44:00,27.0,18.1,30.22,South,189,11.0,11.0,69,0.00,,,0.00,0.0,meteohub,2013-01-27 12:44:00,
2013-01-27 06:50:00,27.1,18.3,30.21,SSE,164,2.0,11.0,69,0.00,,,0.00,0.0,meteohub,2013-01-27 12:50:00,
2013-01-27 06:57:00,27.1,18.3,30.21,South,183,5.0,11.0,69,0.00,,,0.00,0.0,meteohub,2013-01-27 12:57:00,
2013-01-27 07:02:00,27.3,18.5,30.21,SSE,157,4.0,11.0,69,0.00,,,0.00,0.0,meteohub,2013-01-27 13:02:00,
2013-01-27 07:07:00,27.5,18.7,30.21,SE,144,3.0,11.0,69,0.00,,,0.00,0.0,meteohub,2013-01-27 13:07:00,
2013-01-27 07:13:00,27.7,18.9,30.21,SSE,157,2.0,11.0,69,0.00,,,0.00,0.0,meteohub,2013-01-27 13:13:00,
2013-01-27 07:19:00,27.7,18.9,30.20,SE,142,5.0,10.0,69,0.00,,,0.00,0.0,meteohub,2013-01-27 13:19:00,
2013-01-27 07:26:00,27.9,19.0,30.21,SSE,160,7.0,10.0,69,0.00,,,0.00,0.0,meteohub,2013-01-27 13:26:00,
2013-01-27 07:32:00,28.0,18.9,30.21,SSE,161,5.0,10.0,68,0.00,,,0.00,0.0,meteohub,2013-01-27 13:32:00,
2013-01-27 07:38:00,28.2,19.0,30.21,SSE,152,7.0,11.0,68,0.00,,,0.00,0.0,meteohub,2013-01-27 13:38:00,
2013-01-27 07:44:00,28.4,19.2,30.21,ESE,123,5.0,11.0,68,0.00,,,0.00,5.0,meteohub,2013-01-27 13:44:00,
2013-01-27 07:50:00,28.6,19.4,30.20,SE,136,3.0,11.0,68,0.00,,,0.00,9.0,meteohub,2013-01-27 13:50:00,
2013-01-27 07:57:00,28.6,19.0,30.20,SSE,161,3.0,11.0,67,0.00,,,0.00,12.0,meteohub,2013-01-27 13:57:00,
2013-01-27 08:03:00,28.6,19.0,30.19,SSE,158,3.0,11.0,67,0.00,,,0.00,21.0,meteohub,2013-01-27 14:03:00,
2013-01-27 08:09:00,28.6,19.0,30.19,South,172,4.0,11.0,67,0.00,,,0.00,21.0,meteohub,2013-01-27 14:09:00,
2013-01-27 08:15:00,28.8,19.2,30.19,SSE,153,4.0,11.0,67,0.00,,,0.00,23.0,meteohub,2013-01-27 14:15:00,
2013-01-27 08:21:00,28.8,19.2,30.19,SSE,159,5.0,10.0,67,0.00,,,0.00,26.0,meteohub,2013-01-27 14:21:00,
2013-01-27 08:28:00,28.8,19.6,30.19,SE,138,3.0,10.0,68,0.00,,,0.00,32.0,meteohub,2013-01-27 14:28:00,
2013-01-27 08:34:00,28.9,19.4,30.19,South,174,4.0,10.0,67,0.00,,,0.00,42.0,meteohub,2013-01-27 14:34:00,
2013-01-27 08:40:00,28.9,19.4,30.19,South,175,4.0,10.0,67,0.00,,,0.00,40.0,meteohub,2013-01-27 14:40:00,
2013-01-27 08:46:00,29.1,19.6,30.19,South,186,9.0,10.0,67,0.00,,,0.00,40.0,meteohub,2013-01-27 14:46:00,
2013-01-27 08:52:00,29.1,19.2,30.18,SSE,159,6.0,11.0,66,0.00,,,0.00,33.0,meteohub,2013-01-27 14:52:00,
2013-01-27 08:59:00,29.3,19.8,30.18,South,184,3.0,11.0,67,0.00,,,0.00,30.0,meteohub,2013-01-27 14:59:00,
2013-01-27 09:05:00,29.5,19.6,30.18,SSE,168,3.0,11.0,66,0.00,,,0.00,35.0,meteohub,2013-01-27 15:05:00,
2013-01-27 09:11:00,29.7,19.8,30.18,SSE,165,2.0,11.0,66,0.00,,,0.00,39.0,meteohub,2013-01-27 15:11:00,
2013-01-27 09:17:00,29.7,19.8,30.18,SSE,150,3.0,11.0,66,0.00,,,0.00,42.0,meteohub,2013-01-27 15:17:00,
2013-01-27 09:23:00,29.8,20.3,30.18,SSE,164,2.0,9.0,67,0.00,,,0.00,47.0,meteohub,2013-01-27 15:23:00,
2013-01-27 09:29:00,29.8,19.9,30.17,SSE,154,3.0,9.0,66,0.00,,,0.00,47.0,meteohub,2013-01-27 15:29:00,
2013-01-27 09:36:00,30.0,20.1,30.17,ESE,115,2.0,8.0,66,0.00,,,0.00,40.0,meteohub,2013-01-27 15:36:00,
2013-01-27 09:42:00,30.2,20.3,30.17,SSE,149,2.0,8.0,66,0.00,,,0.00,46.0,meteohub,2013-01-27 15:42:00,
2013-01-27 09:48:00,30.4,19.9,30.17,SSW,194,3.0,8.0,65,0.00,,,0.00,46.0,meteohub,2013-01-27 15:48:00,
2013-01-27 09:54:00,30.4,20.3,30.17,SE,139,4.0,8.0,66,0.00,,,0.00,44.0,meteohub,2013-01-27 15:54:00,
2013-01-27 10:00:00,30.6,20.1,30.17,SE,130,5.0,8.0,65,0.00,,,0.00,49.0,meteohub,2013-01-27 16:00:00,
2013-01-27 10:07:00,30.6,20.1,30.16,SE,127,3.0,10.0,65,0.00,,,0.00,51.0,meteohub,2013-01-27 16:07:00,
2013-01-27 10:13:00,30.7,20.3,30.16,SSE,167,4.0,10.0,65,0.00,,,0.00,49.0,meteohub,2013-01-27 16:13:00,
2013-01-27 10:19:00,30.9,20.5,30.16,SE,143,9.0,9.0,65,0.00,,,0.00,47.0,meteohub,2013-01-27 16:19:00,
2013-01-27 10:25:00,30.9,20.1,30.16,SSE,159,3.0,9.0,64,0.00,,,0.00,56.0,meteohub,2013-01-27 16:25:00,
2013-01-27 10:31:00,31.1,20.7,30.16,SE,142,2.0,9.0,65,0.00,,,0.00,53.0,meteohub,2013-01-27 16:31:00,
2013-01-27 10:38:00,31.3,20.8,30.16,SSE,154,3.0,12.0,65,0.00,,,0.00,65.0,meteohub,2013-01-27 16:38:00,
2013-01-27 10:44:00,31.3,20.8,30.16,South,179,4.0,12.0,65,0.00,,,0.00,56.0,meteohub,2013-01-27 16:44:00,
2013-01-27 10:50:00,31.5,21.0,30.16,SE,144,2.0,13.0,65,0.00,,,0.00,44.0,meteohub,2013-01-27 16:50:00,
2013-01-27 10:56:00,31.5,21.0,30.16,South,169,4.0,13.0,65,0.00,,,0.00,40.0,meteohub,2013-01-27 16:56:00,
2013-01-27 11:02:00,31.5,21.0,30.16,South,191,8.0,13.0,65,0.00,,,0.00,40.0,meteohub,2013-01-27 17:02:00,
2013-01-27 11:09:00,31.6,21.2,30.16,ESE,110,4.0,10.0,65,0.00,,,0.00,47.0,meteohub,2013-01-27 17:09:00,
2013-01-27 11:15:00,31.6,21.6,30.15,SSE,168,5.0,10.0,66,0.00,,,0.00,63.0,meteohub,2013-01-27 17:15:00,
2013-01-27 11:21:00,31.6,21.2,30.15,SSE,155,6.0,10.0,65,0.00,,,0.00,72.0,meteohub,2013-01-27 17:21:00,
2013-01-27 11:27:00,31.8,21.4,30.14,SSE,153,4.0,10.0,65,0.00,,,0.00,69.0,meteohub,2013-01-27 17:27:00,
2013-01-27 11:33:00,32.0,21.6,30.14,SSE,155,5.0,11.0,65,0.00,,,0.00,72.0,meteohub,2013-01-27 17:33:00,
2013-01-27 11:39:00,32.2,21.7,30.14,SE,145,4.0,11.0,65,0.00,,,0.00,98.0,meteohub,2013-01-27 17:39:00,
2013-01-27 11:46:00,32.2,21.7,30.14,SSE,164,8.0,11.0,65,0.00,,,0.00,111.0,meteohub,2013-01-27 17:46:00,
2013-01-27 11:52:00,32.4,21.9,30.13,SE,137,4.0,9.0,65,0.00,,,0.00,100.0,meteohub,2013-01-27 17:52:00,
2013-01-27 11:58:00,32.4,21.9,30.13,SE,143,3.0,9.0,65,0.00,,,0.00,86.0,meteohub,2013-01-27 17:58:00,
2013-01-27 12:04:00,32.5,22.5,30.12,East,96,2.0,12.0,66,0.00,,,0.00,111.0,meteohub,2013-01-27 18:04:00,
2013-01-27 12:10:00,32.5,22.5,30.12,SE,137,4.0,12.0,66,0.00,,,0.00,90.0,meteohub,2013-01-27 18:10:00,
2013-01-27 12:17:00,32.5,22.8,30.12,SE,139,1.0,12.0,67,0.00,,,0.00,95.0,meteohub,2013-01-27 18:17:00,
2013-01-27 12:23:00,32.5,23.5,30.11,SE,128,4.0,12.0,69,0.00,,,0.00,114.0,meteohub,2013-01-27 18:23:00,
2013-01-27 12:29:00,32.5,24.3,30.10,SSE,158,4.0,11.0,71,0.00,,,0.00,98.0,meteohub,2013-01-27 18:29:00,
2013-01-27 12:35:00,32.5,24.4,30.10,SSE,156,4.0,11.0,72,0.00,,,0.00,151.0,meteohub,2013-01-27 18:35:00,
2013-01-27 12:42:00,32.5,25.5,30.10,South,171,9.0,11.0,75,0.00,,,0.00,100.0,meteohub,2013-01-27 18:42:00,
2013-01-27 12:47:00,32.4,25.7,30.09,SSE,157,6.0,11.0,76,0.00,,,0.00,67.0,meteohub,2013-01-27 18:47:00,
2013-01-27 12:52:00,32.4,26.2,30.09,SSE,157,2.0,11.0,78,0.00,,,0.00,62.0,meteohub,2013-01-27 18:52:00,
2013-01-27 12:58:00,32.4,27.1,30.09,SE,134,4.0,13.0,81,0.00,,,0.00,51.0,meteohub,2013-01-27 18:58:00,
2013-01-27 13:04:00,32.2,27.7,30.08,South,182,6.0,13.0,83,0.00,,,0.00,39.0,meteohub,2013-01-27 19:04:00,
2013-01-27 13:11:00,31.8,27.9,30.08,SE,128,3.0,13.0,85,0.00,,,0.00,33.0,meteohub,2013-01-27 19:11:00,
2013-01-27 13:17:00,31.6,28.2,30.08,SSE,152,2.0,13.0,87,0.00,,,0.00,26.0,meteohub,2013-01-27 19:17:00,
2013-01-27 13:23:00,31.6,28.6,30.07,SSE,147,3.0,11.0,88,0.00,,,0.00,26.0,meteohub,2013-01-27 19:23:00,
2013-01-27 13:29:00,31.6,28.8,30.07,ESE,112,4.0,11.0,89,0.00,,,0.00,32.0,meteohub,2013-01-27 19:29:00,
2013-01-27 13:35:00,31.6,29.1,30.07,South,176,5.0,11.0,90,0.00,,,0.01,32.0,meteohub,2013-01-27 19:35:00,
2013-01-27 13:42:00,31.6,29.1,30.07,SSW,206,7.0,11.0,90,0.01,,,0.01,30.0,meteohub,2013-01-27 19:42:00,
2013-01-27 13:47:00,31.6,29.3,30.06,SE,144,4.0,11.0,91,0.01,,,0.01,26.0,meteohub,2013-01-27 19:47:00,
2013-01-27 13:52:00,31.6,29.3,30.06,SE,145,2.0,11.0,91,0.01,,,0.01,26.0,meteohub,2013-01-27 19:52:00,
2013-01-27 13:58:00,31.6,29.3,30.06,SSE,165,2.0,10.0,91,0.02,,,0.02,30.0,meteohub,2013-01-27 19:58:00,
2013-01-27 14:04:00,31.6,29.7,30.05,East,98,8.0,10.0,92,0.02,,,0.02,40.0,meteohub,2013-01-27 20:04:00,
2013-01-27 14:10:00,31.5,29.5,30.05,SSE,147,4.0,10.0,92,0.02,,,0.02,40.0,meteohub,2013-01-27 20:10:00,
2013-01-27 14:17:00,31.5,29.5,30.04,SE,143,1.0,9.0,92,0.02,,,0.02,35.0,meteohub,2013-01-27 20:17:00,
2013-01-27 14:23:00,31.5,29.5,30.04,SSE,167,4.0,9.0,92,0.02,,,0.03,21.0,meteohub,2013-01-27 20:23:00,
2013-01-27 14:29:00,31.5,29.7,30.04,SSE,150,1.0,7.0,93,0.02,,,0.03,16.0,meteohub,2013-01-27 20:29:00,
2013-01-27 14:35:00,31.5,29.7,30.04,South,181,3.0,7.0,93,0.02,,,0.03,14.0,meteohub,2013-01-27 20:35:00,
2013-01-27 14:41:00,31.5,29.7,30.04,SE,134,2.0,7.0,93,0.02,,,0.03,19.0,meteohub,2013-01-27 20:41:00,
2013-01-27 14:47:00,31.5,29.7,30.04,SSE,150,1.0,7.0,93,0.02,,,0.03,28.0,meteohub,2013-01-27 20:47:00,
2013-01-27 14:52:00,31.5,30.0,30.04,SE,140,2.0,9.0,94,0.02,,,0.03,26.0,meteohub,2013-01-27 20:52:00,
2013-01-27 14:58:00,31.5,30.0,30.03,SSE,167,3.0,9.0,94,0.02,,,0.04,19.0,meteohub,2013-01-27 20:58:00,
2013-01-27 15:04:00,31.5,30.0,30.03,SSE,153,1.0,8.0,94,0.02,,,0.04,11.0,meteohub,2013-01-27 21:04:00,
2013-01-27 15:10:00,31.5,30.0,30.03,South,184,0.0,8.0,94,0.02,,,0.04,7.0,meteohub,2013-01-27 21:10:00,
2013-01-27 15:16:00,31.5,30.0,30.03,SE,133,0.0,8.0,94,0.02,,,0.04,7.0,meteohub,2013-01-27 21:16:00,
2013-01-27 15:23:00,31.5,30.0,30.02,ENE,72,3.0,7.0,94,0.02,,,0.04,9.0,meteohub,2013-01-27 21:23:00,
2013-01-27 15:29:00,31.5,30.0,30.02,ESE,121,1.0,7.0,94,0.02,,,0.05,11.0,meteohub,2013-01-27 21:29:00,
2013-01-27 15:35:00,31.5,30.2,30.02,SE,124,0.0,6.0,95,0.02,,,0.05,11.0,meteohub,2013-01-27 21:35:00,
2013-01-27 15:41:00,31.5,30.2,30.02,ESE,123,0.0,6.0,95,0.02,,,0.05,7.0,meteohub,2013-01-27 21:41:00,
2013-01-27 15:47:00,31.5,30.2,30.02,SSE,150,1.0,6.0,95,0.02,,,0.05,7.0,meteohub,2013-01-27 21:47:00,
2013-01-27 15:54:00,31.5,30.2,30.02,ESE,118,2.0,4.0,95,0.01,,,0.05,9.0,meteohub,2013-01-27 21:54:00,
2013-01-27 16:00:00,31.5,30.2,30.02,SE,128,2.0,4.0,95,0.01,,,0.06,9.0,meteohub,2013-01-27 22:00:00,
2013-01-27 16:06:00,31.5,30.2,30.02,SSE,156,2.0,8.0,95,0.02,,,0.06,7.0,meteohub,2013-01-27 22:06:00,
2013-01-27 16:12:00,31.5,30.2,30.02,ESE,111,0.0,8.0,95,0.02,,,0.07,7.0,meteohub,2013-01-27 22:12:00,
2013-01-27 16:18:00,31.5,30.2,30.02,SSE,163,1.0,5.0,95,0.03,,,0.07,5.0,meteohub,2013-01-27 22:18:00,
2013-01-27 16:25:00,31.5,30.2,30.02,South,169,2.0,5.0,95,0.03,,,0.07,5.0,meteohub,2013-01-27 22:25:00,
2013-01-27 16:31:00,31.5,30.2,30.02,South,178,1.0,5.0,95,0.03,,,0.08,0.0,meteohub,2013-01-27 22:31:00,
2013-01-27 16:37:00,31.5,30.2,30.01,SSE,152,2.0,5.0,95,0.03,,,0.08,0.0,meteohub,2013-01-27 22:37:00,
2013-01-27 16:43:00,31.5,30.2,30.01,SSE,151,0.0,5.0,95,0.03,,,0.08,0.0,meteohub,2013-01-27 22:43:00,
2013-01-27 16:49:00,31.5,30.2,30.01,SSE,158,0.0,5.0,95,0.03,,,0.08,0.0,meteohub,2013-01-27 22:49:00,
2013-01-27 16:55:00,31.5,30.2,30.01,SE,138,2.0,5.0,95,0.03,,,0.08,0.0,meteohub,2013-01-27 22:55:00,
2013-01-27 17:02:00,31.5,30.2,30.01,SE,137,1.0,5.0,95,0.03,,,0.09,0.0,meteohub,2013-01-27 23:02:00,
2013-01-27 17:08:00,31.5,30.2,30.00,SE,142,0.0,5.0,95,0.03,,,0.09,0.0,meteohub,2013-01-27 23:08:00,
2013-01-27 17:14:00,31.5,30.2,30.00,SE,143,0.0,5.0,95,0.03,,,0.10,0.0,meteohub,2013-01-27 23:14:00,
2013-01-27 17:20:00,31.3,30.0,30.00,SSE,163,0.0,5.0,95,0.03,,,0.10,0.0,meteohub,2013-01-27 23:20:00,
2013-01-27 17:26:00,31.3,30.0,30.00,SE,145,1.0,5.0,95,0.03,,,0.10,0.0,meteohub,2013-01-27 23:26:00,
2013-01-27 17:32:00,31.3,30.0,30.00,SSE,155,2.0,5.0,95,0.02,,,0.10,0.0,meteohub,2013-01-27 23:32:00,
2013-01-27 17:37:00,31.3,30.0,30.00,SSE,157,3.0,5.0,95,0.02,,,0.10,0.0,meteohub,2013-01-27 23:37:00,
2013-01-27 17:43:00,31.3,30.0,30.00,SSE,168,2.0,5.0,95,0.02,,,0.11,0.0,meteohub,2013-01-27 23:43:00,
2013-01-27 17:49:00,31.3,30.0,30.00,South,171,2.0,5.0,95,0.02,,,0.11,0.0,meteohub,2013-01-27 23:49:00,
2013-01-27 17:55:00,31.3,30.0,30.00,SSE,148,0.0,5.0,95,0.02,,,0.11,0.0,meteohub,2013-01-27 23:55:00,
2013-01-27 18:02:00,31.3,30.0,29.99,SSE,157,2.0,5.0,95,0.03,,,0.11,0.0,meteohub,2013-01-28 00:02:00,
2013-01-27 18:08:00,31.3,30.0,30.00,SE,133,3.0,4.0,95,0.03,,,0.11,0.0,meteohub,2013-01-28 00:08:00,
2013-01-27 18:14:00,31.3,30.0,29.99,SSE,150,1.0,4.0,95,0.03,,,0.11,0.0,meteohub,2013-01-28 00:14:00,
2013-01-27 18:20:00,31.3,30.0,29.99,SSE,158,2.0,4.0,95,0.03,,,0.12,0.0,meteohub,2013-01-28 00:20:00,
2013-01-27 18:26:00,31.3,30.0,29.99,SSE,168,0.0,4.0,95,0.02,,,0.12,0.0,meteohub,2013-01-28 00:26:00,
2013-01-27 18:32:00,31.3,30.0,30.00,SE,146,0.0,4.0,95,0.02,,,0.12,0.0,meteohub,2013-01-28 00:32:00,
2013-01-27 18:37:00,31.3,30.0,30.00,South,178,1.0,4.0,95,0.02,,,0.12,0.0,meteohub,2013-01-28 00:37:00,
2013-01-27 18:43:00,31.3,30.0,30.00,SE,136,1.0,4.0,95,0.02,,,0.12,0.0,meteohub,2013-01-28 00:43:00,
2013-01-27 18:49:00,31.3,30.0,29.99,East,101,1.0,4.0,95,0.02,,,0.13,0.0,meteohub,2013-01-28 00:49:00,
2013-01-27 18:55:00,31.3,30.2,30.00,SSE,163,1.0,5.0,96,0.02,,,0.13,0.0,meteohub,2013-01-28 00:55:00,
2013-01-27 19:02:00,31.3,30.2,30.00,South,178,1.0,5.0,96,0.02,,,0.13,0.0,meteohub,2013-01-28 01:02:00,
2013-01-27 19:08:00,31.3,30.2,30.00,SE,132,3.0,5.0,96,0.02,,,0.13,0.0,meteohub,2013-01-28 01:08:00,
2013-01-27 19:14:00,31.3,30.2,30.00,East,100,1.0,5.0,96,0.02,,,0.14,0.0,meteohub,2013-01-28 01:14:00,
2013-01-27 19:20:00,31.3,30.2,29.99,SE,144,4.0,4.0,96,0.02,,,0.14,0.0,meteohub,2013-01-28 01:20:00,
2013-01-27 19:26:00,31.3,30.2,29.99,SSE,155,0.0,3.0,96,0.02,,,0.14,0.0,meteohub,2013-01-28 01:26:00,
2013-01-27 19:32:00,31.3,30.2,29.99,SSE,157,0.0,3.0,96,0.02,,,0.14,0.0,meteohub,2013-01-28 01:32:00,
2013-01-27 19:37:00,31.3,30.2,29.99,SE,127,2.0,3.0,96,0.02,,,0.15,0.0,meteohub,2013-01-28 01:37:00,
2013-01-27 19:43:00,31.5,30.4,29.99,SE,134,1.0,3.0,96,0.03,,,0.15,0.0,meteohub,2013-01-28 01:43:00,
2013-01-27 19:49:00,31.5,30.4,29.99,SE,137,0.0,3.0,96,0.03,,,0.15,0.0,meteohub,2013-01-28 01:49:00,
2013-01-27 19:55:00,31.5,30.4,29.99,SE,137,0.0,3.0,96,0.03,,,0.16,0.0,meteohub,2013-01-28 01:55:00,
2013-01-27 20:02:00,31.5,30.4,29.99,SE,137,0.0,3.0,96,0.02,,,0.16,0.0,meteohub,2013-01-28 02:02:00,
2013-01-27 20:08:00,31.5,30.4,29.99,SE,138,2.0,3.0,96,0.02,,,0.16,0.0,meteohub,2013-01-28 02:08:00,
2013-01-27 20:14:00,31.5,30.4,29.99,SE,138,0.0,3.0,96,0.03,,,0.16,0.0,meteohub,2013-01-28 02:14:00,
2013-01-27 20:20:00,31.5,30.4,29.98,SE,138,0.0,3.0,96,0.03,,,0.16,0.0,meteohub,2013-01-28 02:20:00,
2013-01-27 20:26:00,31.5,30.4,29.98,SE,138,0.0,3.0,96,0.03,,,0.17,0.0,meteohub,2013-01-28 02:26:00,
2013-01-27 20:32:00,31.5,30.4,29.98,SE,138,0.0,3.0,96,0.03,,,0.17,0.0,meteohub,2013-01-28 02:32:00,
2013-01-27 20:37:00,31.5,30.4,29.98,SE,138,0.0,3.0,96,0.03,,,0.17,0.0,meteohub,2013-01-28 02:37:00,
2013-01-27 20:43:00,31.5,30.4,29.98,SE,138,1.0,3.0,96,0.03,,,0.18,0.0,meteohub,2013-01-28 02:43:00,
2013-01-27 20:49:00,31.3,30.2,29.97,SE,138,0.0,2.0,96,0.02,,,0.18,0.0,meteohub,2013-01-28 02:49:00,
2013-01-27 20:55:00,31.3,30.2,29.98,SE,138,0.0,2.0,96,0.02,,,0.18,0.0,meteohub,2013-01-28 02:55:00,
2013-01-27 21:01:00,31.3,30.2,29.97,SE,138,0.0,2.0,96,0.02,,,0.18,0.0,meteohub,2013-01-28 03:01:00,
2013-01-27 21:08:00,31.3,30.2,29.98,SE,138,0.0,2.0,96,0.02,,,0.18,0.0,meteohub,2013-01-28 03:08:00,
2013-01-27 21:14:00,31.3,30.2,29.98,SE,138,0.0,2.0,96,0.02,,,0.19,0.0,meteohub,2013-01-28 03:14:00,
2013-01-27 21:20:00,31.3,30.2,29.98,SE,138,0.0,2.0,96,0.02,,,0.19,0.0,meteohub,2013-01-28 03:20:00,
2013-01-27 21:26:00,31.3,30.2,29.98,SE,138,0.0,2.0,96,0.02,,,0.19,0.0,meteohub,2013-01-28 03:26:00,
2013-01-27 21:32:00,31.3,30.2,29.98,SE,138,0.0,2.0,96,0.02,,,0.20,0.0,meteohub,2013-01-28 03:32:00,
2013-01-27 21:39:00,31.3,30.2,29.97,SE,138,0.0,2.0,96,0.02,,,0.20,0.0,meteohub,2013-01-28 03:39:00,
2013-01-27 21:45:00,31.3,30.2,29.97,SE,138,0.0,2.0,96,0.02,,,0.20,0.0,meteohub,2013-01-28 03:45:00,
2013-01-27 21:51:00,31.3,30.2,29.97,SE,138,0.0,2.0,96,0.02,,,0.20,0.0,meteohub,2013-01-28 03:51:00,
2013-01-27 21:57:00,31.3,30.2,29.97,SE,138,0.0,2.0,96,0.02,,,0.20,0.0,meteohub,2013-01-28 03:57:00,
2013-01-27 22:03:00,31.3,30.2,29.96,SE,138,0.0,1.0,96,0.02,,,0.20,0.0,meteohub,2013-01-28 04:03:00,
2013-01-27 22:10:00,31.3,30.2,29.96,SE,138,1.0,1.0,96,0.02,,,0.20,0.0,meteohub,2013-01-28 04:10:00,
2013-01-27 22:16:00,31.3,30.2,29.97,SE,138,0.0,1.0,96,0.02,,,0.21,0.0,meteohub,2013-01-28 04:16:00,
2013-01-27 22:22:00,31.3,30.2,29.97,SE,138,0.0,3.0,96,0.02,,,0.21,0.0,meteohub,2013-01-28 04:22:00,
2013-01-27 22:28:00,31.3,30.2,29.97,SE,138,0.0,3.0,96,0.02,,,0.22,0.0,meteohub,2013-01-28 04:28:00,
2013-01-27 22:34:00,31.3,30.2,29.97,SE,138,0.0,1.0,96,0.02,,,0.22,0.0,meteohub,2013-01-28 04:34:00,
2013-01-27 22:40:00,31.3,30.2,29.97,SE,138,1.0,1.0,96,0.02,,,0.22,0.0,meteohub,2013-01-28 04:40:00,
2013-01-27 22:47:00,31.3,30.2,29.97,SE,138,0.0,1.0,96,0.02,,,0.22,0.0,meteohub,2013-01-28 04:47:00,
2013-01-27 22:53:00,31.3,30.2,29.97,SE,138,0.0,2.0,96,0.02,,,0.22,0.0,meteohub,2013-01-28 04:53:00,
2013-01-27 22:59:00,31.3,30.2,29.96,SE,138,0.0,2.0,96,0.02,,,0.22,0.0,meteohub,2013-01-28 04:59:00,
2013-01-27 23:02:00,31.3,30.2,29.96,SE,138,0.0,2.0,96,0.02,,,0.22,0.0,meteohub,2013-01-28 05:02:00,
2013-01-27 23:04:00,31.3,30.2,29.96,SE,138,0.0,2.0,96,0.02,,,0.22,0.0,meteohub,2013-01-28 05:04:00,
2013-01-27 23:05:00,31.3,30.2,29.96,SE,138,0.0,0.0,96,0.02,,,0.22,0.0,meteohub,2013-01-28 05:05:00,
2013-01-27 23:11:00,31.3,30.2,29.96,SE,138,0.0,0.0,96,0.02,,,0.22,0.0,meteohub,2013-01-28 05:11:00,
2013-01-27 23:13:00,31.3,30.2,29.96,SE,138,0.0,0.0,96,0.02,,,0.23,0.0,meteohub,2013-01-28 05:13:00,
2013-01-27 23:19:00,31.3,30.2,29.96,SE,138,0.0,2.0,96,0.02,,,0.23,0.0,meteohub,2013-01-28 05:19:00,
2013-01-27 23:25:00,31.3,30.2,29.96,SE,138,0.0,2.0,96,0.02,,,0.23,0.0,meteohub,2013-01-28 05:25:00,
2013-01-27 23:32:00,31.3,30.2,29.97,SE,138,0.0,2.0,96,0.02,,,0.24,0.0,meteohub,2013-01-28 05:32:00,
2013-01-27 23:38:00,31.3,30.2,29.97,SE,138,0.0,3.0,96,0.02,,,0.24,0.0,meteohub,2013-01-28 05:38:00,
2013-01-27 23:44:00,31.3,30.2,29.97,SE,138,0.0,3.0,96,0.02,,,0.24,0.0,meteohub,2013-01-28 05:44:00,
2013-01-27 23:50:00,31.3,30.2,29.97,SE,138,0.0,0.0,96,0.02,,,0.24,0.0,meteohub,2013-01-28 05:50:00,
2013-01-27 23:56:00,31.3,30.2,29.97,SE,138,0.0,0.0,96,0.02,,,0.24,0.0,meteohub,2013-01-28 05:56:00,